FW4151 Weather Reports


Display with metric or nautical units.
time (UTC)temp
F
wind
direction
speed
MPH
gust
MPH
rain 1hr
in
rain 24hr
in
rain mn
in
humidity
%
barometer
mb
20260507010038 43 0.0 0.0 0.00 0.10 0.10 93 1009.9
20260507004536 43 0.0 0.0 0.00 0.10 0.10 94 1009.9
20260507003033 43 0.0 0.0 0.00 0.10 0.10 94 1009.4
20260507001603 43 0.0 0.0 0.00 0.10 0.10 93 1009.3
20260507000040 43 0.0 0.0 0.00 0.10 0.10 93 1009.2
20260506234531 43 0.0 0.0 0.00 0.10 0.10 93 1009.0
20260506233029 43 0.0 0.0 0.00 0.10 0.10 93 1008.7
20260506231529 43 0.0 0.0 0.00 0.10 0.10 93 1008.8
20260506230040 43 0.0 0.0 0.00 0.10 0.10 93 1008.7
20260506224524 44 0.0 0.0 0.00 0.10 0.10 93 1008.5
20260506223028 44 0.0 0.0 0.00 0.10 0.10 94 1008.3
20260506221520 44 0.0 0.0 0.00 0.10 0.10 94 1007.8
20260506220019 44 0.0 0.0 0.00 0.10 0.10 94 1007.6
20260506214517 45 0.0 0.0 0.00 0.10 0.10 94 1007.5
20260506213016 45 0.0 0.0 0.00 0.10 0.10 94 1007.5
20260506211512 45 0.0 0.0 0.00 0.10 0.10 94 1007.1
20260506210022 45 0.0 0.0 0.01 0.10 0.10 94 1006.7
20260506204510 46 0.0 0.0 0.01 0.13 0.10 94 1006.4
20260506203010 46 0.0 0.0 0.01 0.13 0.10 94 1006.1
20260506201510 47 0.0 0.0 0.01 0.13 0.10 94 1005.5
20260506200006 47 0.0 0.0 0.00 0.12 0.09 94 1005.7
20260506194506 47 0.0 0.0 0.00 0.15 0.09 94 1005.5
20260506193001 48 0.0 0.0 0.00 0.15 0.09 94 1005.4
20260506191600 48 0.0 0.0 0.00 0.15 0.09 93 1005.3
20260506190058 49 0.0 0.0 0.00 0.15 0.09 93 1004.9
20260506184555 50 0.0 0.0 0.00 0.15 0.09 91 1004.7
20260506183049 51 0.0 0.0 0.00 0.15 0.09 89 1004.8
20260506181554 54 0.0 0.0 0.00 0.15 0.09 88 1004.4
20260506180050 56 0.0 0.0 0.01 0.15 0.09 94 1003.9
20260506174546 56 0.0 0.0 0.01 0.15 0.09 94 1003.9
20260506173048 56 0.0 0.0 0.01 0.15 0.09 94 1003.8
20260506171545 56 0.0 0.0 0.03 0.15 0.09 95 1003.8
20260506170052 56 0.0 0.0 0.02 0.14 0.08 95 1003.9
20260506164555 56 0.0 0.0 0.03 0.14 0.08 95 1004.0
20260506163045 55 0.0 0.0 0.04 0.14 0.08 95 1003.9
20260506161538 55 0.0 0.0 0.05 0.12 0.06 95 1004.2
20260506160038 55 0.0 0.0 0.06 0.12 0.06 95 1004.2
20260506154541 55 0.0 0.0 0.05 0.11 0.05 95 1004.1
20260506153036 55 0.0 0.0 0.04 0.10 0.04 94 1004.2
20260506151539 55 0.0 0.0 0.01 0.07 0.01 95 1004.3
20260506150041 0 0.0 0.0 0.00 0.06 0.00 1004.0
20260506144531 0 0.0 0.0 0.00 0.06 0.00 1003.9
20260506143026 0 0.0 0.0 0.00 0.06 0.00 1004.0
20260506141529 0 0.0 0.0 0.00 0.06 0.00 1004.1
20260506140017 0 0.0 0.0 0.00 0.06 0.00 1004.0
20260506134513 0 0.0 0.0 0.00 0.06 0.00 1004.2
20260506133009 0 0.0 0.0 0.00 0.06 0.00 1004.6
20260506131617 0 0.0 0.0 0.00 0.06 0.00 1004.8
20260506130002 0 0.0 0.0 0.00 0.06 0.00 1005.0
20260506124557 0 0.0 0.0 0.00 0.06 0.00 1005.2
20260506123056 0 0.0 0.0 0.00 0.06 0.00 1004.8
20260506121555 0 0.0 0.0 0.00 0.06 0.00 1004.8
20260506120058 0 0.0 0.0 0.00 0.06 0.00 1004.8
20260506114541 0 0.0 0.0 0.00 0.06 0.00 1005.1
20260506113037 0 0.0 0.0 0.00 0.06 0.00 1005.0
20260506111533 0 0.0 0.0 0.00 0.06 0.00 1005.0
20260506110030 0 0.0 0.0 0.00 0.06 0.00 1005.1
20260506104536 0 0.0 0.0 0.00 0.06 0.00 1005.1
20260506103036 0 0.0 0.0 0.00 0.06 0.00 1005.1
20260506101516 0 0.0 0.0 0.00 0.06 0.00 1004.8
20260506100012 0 0.0 0.0 0.00 0.06 0.00 1004.7
20260506094511 0 0.0 0.0 0.00 0.06 0.00 1004.6
20260506093003 0 0.0 0.0 0.00 0.06 0.00 1004.6
20260506091602 0 0.0 0.0 0.00 0.06 0.00 1004.8
20260506090104 53 0.0 0.0 0.00 0.06 0.00 92 1004.9
20260506084629 52 0.0 0.0 0.00 0.06 0.00 92 1005.2
20260506083056 52 0.0 0.0 0.00 0.06 0.00 93 1005.4
20260506081559 52 0.0 0.0 0.00 0.06 0.00 93 1005.4
20260506073051 52 0.0 0.0 0.00 0.06 0.00 92 1004.9
20260506071550 52 0.0 0.0 0.00 0.06 0.00 91 1005.0
20260506061543 52 0.0 0.0 0.00 0.06 0.00 90 1005.7
20260506044537 54 0.0 0.0 0.00 0.06 0.00 87 1006.8
20260506043030 54 0.0 0.0 0.00 0.06 0.00 87 1006.7
20260506041529 54 0.0 0.0 0.00 0.06 0.00 86 1006.9
20260506040032 55 0.0 0.0 0.00 0.06 0.00 85 1007.1
20260506034524 55 0.0 0.0 0.00 0.06 0.06 85 1007.4
20260506033021 56 0.0 0.0 0.00 0.06 0.06 86 1007.3
20260506031521 56 0.0 0.0 0.00 0.06 0.06 86 1007.2
20260506030022 57 0.0 0.0 0.00 0.06 0.06 86 1007.1
20260506024520 58 0.0 0.0 0.00 0.06 0.06 85 1007.2
20260506023033 58 0.0 0.0 0.00 0.06 0.06 84 1007.1
20260506021530 59 0.0 0.0 0.00 0.06 0.06 83 1006.8
20260506020015 60 0.0 0.0 0.00 0.06 0.06 82 1006.7
20260506014518 60 0.0 0.0 0.00 0.06 0.06 80 1006.6
20260506013015 59 0.0 0.0 0.00 0.06 0.06 80 1006.4
20260506011513 59 0.0 0.0 0.00 0.06 0.06 82 1006.3